Location: *
(42.8200°N, 0.4047°E)
Time: 18:47:16
(UTC+00:00)

Daily predictions for brighter satellites

Satellite Brightness Start Highest point End
(mag) Time Altitude Azimuth Time Altitude Azimuth Time Altitude Azimuth
BREEZE-M DEB (TANK) 4.0 17:31:26 10° NW 17:35:29 46° NNE 17:44:53 10° E
CZ-4C R/B 3.5 17:29:20 10° NW 17:36:39 70° WSW 17:44:53 10° SSE
COSMO-SKYMED 1 3.1 17:35:31 10° NNE 17:39:35 38° E 17:43:37 10° SSE
Cosmos 1821 Rocket 4.0 17:33:37 10° N 17:39:44 71° E 17:45:52 10° SSE
Cosmos 1908 4.5 17:36:53 10° SE 17:39:52 21° E 17:42:51 10° NE
Cosmos 968 Rocket 3.6 17:34:59 10° NNW 17:40:17 87° WSW 17:45:33 10° SSE
Cosmos 2278 Rocket 3.1 17:39:26 10° SSE 17:44:11 28° ESE 17:48:57 10° NE
ATLAS 5 CENTAUR R/B 3.1 17:41:09 10° WSW 17:45:05 35° NW 17:49:29 10° NNE
OAO 3 Rocket 4.5 17:41:07 10° WSW 17:45:29 33° S 17:49:54 10° ESE
Cosmos 1825 Rocket 3.7 17:41:51 10° N 17:46:15 84° W 17:50:39 10° S
Cosmos 1354 Rocket 4.1 17:41:09 10° NNW 17:46:25 87° WSW 17:51:39 10° SSE
Nadezhda 3 Rocket 4.1 17:42:05 10° S 17:48:21 88° W 17:54:45 10° N
Cosmos 1934 Rocket 4.2 17:42:47 10° N 17:49:00 54° ENE 17:55:13 10° SSE
Cosmos 1844 3.9 17:43:36 10° SSW 17:49:18 82° WNW 17:55:07 10° NNE
Cosmos 1953 Rocket 3.5 17:45:07 10° N 17:49:29 71° E 17:53:48 10° SSE
NOAA 12 4.1 17:44:32 10° SSE 17:49:48 84° ENE 17:55:08 10° NNW
Lacrosse 5 rocket 1.8 17:49:19 10° NW 17:53:02 59° SW 17:56:57 10° SSE
Ariane Rocket 4.2 17:49:40 10° ESE 17:53:27 21° ENE 17:57:14 10° NNE
Cosmos 1535 Rocket 4.5 17:49:38 10° N 17:55:47 61° E 18:01:49 10° SSE
Cosmos 1939 Rocket 4.2 17:55:20 10° ESE 17:58:16 20° ENE 18:01:16 10° NNE
Abrixas rocket 2.5 17:55:31 10° SW 17:58:27 44° SSE 18:00:46 15° ENE
Cosmos 1606 Rocket 4.0 17:55:17 10° SSW 17:59:39 67° W 18:04:00 10° N
Unknown 2.6 17:58:53 10° NW 18:01:30 57° NNE 18:03:32 15° ESE
Cosmos 1461 4.3 17:59:12 10° N 18:02:19 20° NE 18:04:27 14° E
COBE Rocket 4.0 17:58:06 10° NNE 18:03:19 89° E 18:08:22 10° SSW
Cosmos 1328 3.9 17:59:54 10° N 18:03:49 54° E 18:07:40 10° SSE
NOSS 3-2 (A) 4.4 17:59:34 10° SSE 18:03:57 23° ESE 18:08:34 10° ENE
Cosmos 1242 Rocket 2.5 18:00:55 10° N 18:04:36 65° E 18:08:14 10° SSE
CSL-04 Rocket 3.8 17:59:49 10° SSE 18:05:12 55° ENE 18:10:34 10° N
Cosmos 1726 2.0 18:03:32 10° S 18:07:09 69° E 18:10:48 10° NNE
Unknown 3.8 18:07:54 10° NW 18:10:46 32° NNE 18:12:18 20° ENE
Cosmos 1777 Rocket 4.1 18:09:39 10° N 18:14:45 51° ENE 18:19:48 10° SE
Cosmos 482 Debris 4.2 18:10:11 10° WNW 18:15:23 84° SSW 18:17:48 16° SE
Cosmos 1812 Rocket 4.4 18:15:19 10° SSE 18:19:07 29° E 18:22:57 10° NNE
Cosmos 1271 Rocket 4.5 18:19:05 10° NNW 18:22:46 37° W 18:26:27 10° SSW
CZ-4 R/B 1.5 18:18:50 10° S 18:22:59 82° WSW 18:27:14 10° NNW
Cosmos 839 Rocket 4.1 18:17:45 10° NNW 18:24:01 84° ENE 18:31:13 10° SSE
Cosmos 1833 Rocket 3.0 18:19:15 10° NNW 18:24:38 43° ENE 18:28:56 15° SE
BREEZE-M DEB (TANK) 3.7 18:11:50 10° SW 18:25:20 64° SSE 18:27:59 22° ENE
Cosmos 1076 Rocket 4.5 18:22:31 10° NNE 18:26:12 26° ENE 18:27:01 24° E
CZ-2D R/B 3.5 18:23:43 10° SE 18:27:23 45° ENE 18:31:06 10° N
NOSS 3-2 (C) 4.4 18:23:24 10° SSE 18:27:41 22° ESE 18:28:34 21° E
SKYMED 2 4.0 18:23:22 10° N 18:27:41 64° WNW 18:31:58 10° SSW
YAOGAN 1 2.5 18:24:42 10° SSE 18:29:02 87° ENE 18:33:23 10° NNW
H-2A R/B 3.6 18:35:44 18° NE 18:35:44 18° NE 18:38:56 10° NNE
Meteor 2-10 4.3 18:32:22 10° SSW 18:37:24 65° WNW 18:42:26 10° N
SL-4 R/B 4.4 18:39:19 10° W 18:41:54 18° SW 18:44:23 10° S
BREEZE-M DEB (TANK) 2.2 18:37:19 10° WSW 18:42:04 88° N 18:42:39 51° ENE
YAOGAN 6 3.8 18:38:49 10° S 18:42:20 45° W 18:45:52 10° NNW
Shenzhou-11 Module 1.6 18:41:20 10° W 18:44:07 83° S 18:44:07 83° S
ADEOS Rocket 4.1 18:41:32 10° NNE 18:48:05 30° E 18:54:11 10° SSE
Cosmos 1703 4.3 18:44:24 10° NNW 18:48:12 48° W 18:51:57 10° SSW
Cosmos 2082 Rocket 2.5 18:43:27 10° NNW 18:48:58 47° ENE 18:51:06 33° ESE
Unknown 4.4 18:52:24 10° NW 18:55:05 29° N 18:55:05 29° N
Gbstr 26 Del rocket 4.2 18:50:21 10° NW 18:56:33 65° NNE 18:59:47 35° E
COSMOS 2406 4.0 18:51:01 10° NW 18:56:36 52° WSW 19:02:07 10° S
ATLAS 3B R/B 3.5 18:57:04 10° S 19:01:17 27° SE 19:01:17 27° SE
Cosmos 2058 4.0 18:59:04 10° N 19:01:38 31° NNE 19:01:38 31° NNE
Cosmos 2061 Rocket 4.4 18:58:23 10° N 19:04:09 37° ENE 19:04:09 37° ENE
CENTAUR R/B 3.5 19:08:26 10° S 19:11:09 25° SSE 19:11:09 25° SSE
In-Cosmos 22 Rocket 4.2 19:10:40 10° N 19:15:45 53° ENE 19:15:45 53° ENE
SJ 16-02 3.6 19:16:44 10° N 19:17:24 13° NNE 19:17:24 13° NNE
Cosmos 1459 Rocket 3.9 19:14:39 10° N 19:20:51 68° E 19:23:03 42° SSE
Lacrosse 5 1.9 19:15:57 10° NW 19:20:55 60° NE 19:20:55 60° NE
Cosmos 2278 Rocket 3.3 19:22:38 10° SW 19:28:02 44° WNW 19:33:28 10° NNE
MOS 1 4.2 19:25:42 38° SSE 19:28:02 88° WSW 19:33:44 10° NNW
Cosmos 2297 4.0 19:22:33 10° S 19:26:53 50° SSE 19:26:53 50° SSE
USA 238 DEB 3.7 19:22:15 10° SW 19:28:57 77° NW 19:33:52 21° NNE
USA 238 3.7 19:22:22 10° SW 19:29:03 77° NW 19:33:55 21° NNE
Ariane Rocket 3.8 19:27:05 10° S 19:32:02 51° W 19:37:01 10° NNW
Cosmos 1461 4.0 19:37:39 10° NW 19:40:53 42° W 19:40:53 42° W
Cosmos 1802 Rocket 3.9 19:38:44 10° N 19:45:13 86° E 19:45:54 73° SSE
Cosmos 2173 Rocket 4.0 19:39:10 10° N 19:45:26 79° W 19:47:19 47° S
NOSS 3-2 (A) 3.8 19:48:24 10° SW 19:54:06 61° NW 19:56:02 42° N
SPOT 3 Rocket 4.4 19:58:35 44° NNW 19:58:35 44° NNW 20:02:09 10° NNW
ARGOS 4.2 20:01:16 38° N 20:01:16 38° N 20:04:33 10° NNW
Cosmos 1833 Rocket 4.4 20:03:37 10° NW 20:08:19 28° WSW 20:10:43 21° SW
H-2A R/B 3.4 20:16:22 35° NNW 20:16:22 35° NNW 20:19:33 10° NNW
NOSS 3-2 (C) 4.2 20:12:06 10° SW 20:16:07 45° WSW 20:16:07 45° WSW
Cosmos 2082 Rocket 3.9 20:28:07 10° NW 20:32:45 26° WSW 20:32:59 26° WSW
ADEOS Rocket 3.9 20:26:23 10° N 20:33:54 58° WNW 20:40:54 10° SW
ATLAS 3B R/B 4.4 20:46:27 10° SW 20:48:38 22° WSW 20:48:38 22° WSW
